Temperature
18 18 18 18 18 18 17 17 17 17 17 17 17 17 18 18 18 18 18 17 17 17 17 17 17 17 17 17 17 17 17 17 17 17 16 16 16 16 16 16 16 16 16
18 18 18 18 18 17 17 17 17 17 17 17 17 17 17 17 17 18 17 17 17 17 17 17 17 17 17 17 17 17 17 17 17 17 17 16 16 16 16 16 16 16 16
18 18 18 18 18 17 17 17 17 17 17 17 17 17 17 17 17 17 17 17 17 17 17 17 17 17 17 17 17 17 17 17 17 17 17 16 16 16 16 16 16 16 16
18 18 18 18 17 17 17 17 17 17 17 17 17 17 17 17 17 17 17 17 17 17 17 17 17 17 17 17 17 17 17 17 16 16 17 16 16 16 16 16 16 16 16
18 18 18 18 17 17 17 17 17 17 17 17 17 17 17 17 17 17 17 17 17 17 17 17 17 17 17 17 17 17 16 16 16 16 16 16 16 16 16 16 16 16 16
18 18 17 17 17 17 17 17 17 17 17 17 17 17 17 17 17 17 17 17 17 17 17 17 17 17 17 17 17 16 16 16 16 16 16 16 16 16 16 16 16 16 15
17 17 17 17 17 17 17 17 17 17 17 17 17 17 17 17 17 17 17 17 17 17 17 17 17 17 17 17 16 16 16 16 16 16 16 16 16 16 16 16 16 16 15
17 17 17 17 17 17 17 17 17 17 17 17 17 17 17 17 17 17 17 17 17 17 17 17 17 17 17 17 16 16 16 16 16 16 16 16 16 16 16 16 16 15 15
17 17 17 17 17 17 17 17 17 17 17 17 17 17 16 16 16 17 17 17 17 17 17 17 17 16 16 16 16 16 16 16 16 16 16 16 16 16 16 16 15 15 15
17 17 17 17 17 17 17 17 17 17 17 17 17 16 16 16 16 16 16 17 17 17 17 16 16 16 16 16 16 16 16 16 16 16 16 16 16 16 15 15 15 15 15
17 17 17 17 17 17 17 17 17 16 16 16 16 16 16 16 16 16 16 16 16 16 16 16 16 16 16 16 16 16 16 16 16 16 16 16 15 15 15 15 15 15 15
17 17 17 17 17 17 16 16 16 16 16 16 16 16 16 16 16 16 16 16 16 16 16 16 16 16 16 16 16 16 16 16 16 16 16 15 15 15 15 15 15 15 15
17 17 17 17 17 16 16 16 16 16 16 16 16 16 16 16 15 15 15 15 15 16 16 16 16 16 15 15 15 15 15 15 15 15 15 15 15 15 15 15 15 15 15
16 16 16 16 16 16 16 16 16 16 16 16 16 16 15 15 15 15 15 15 15 15 15 15 15 15 15 15 15 15 15 15 15 15 15 15 15 15 15 15 15 15 15
16 16 16 16 16 16 16 16 16 16 16 16 16 15 15 15 15 15 15 15 15 15 14 15 15 15 15 15 15 15 15 15 15 15 15 15 15 15 15 15 14 14 14
16 16 16 16 16 16 16 15 15 15 15 15 15 15 15 15 15 15 15 15 15 15 14 14 14 15 15 15 15 15 15 15 15 15 15 15 15 15 14 14 14 14 14
16 16 16 16 16 16 15 15 15 15 15 15 15 15 15 15 15 15 15 15 15 15 14 14 14 14 14 15 14 14 14 14 14 14 14 14 14 14 14 14 14 14 14
15 15 15 15 15 15 15 15 15 15 15 15 15 15 15 15 15 14 14 14 14 14 14 14 14 14 14 14 14 14 14 14 14 14 14 14 14 14 14 14 14 14 14
15 15 15 15 15 15 15 15 15 15 14 14 14 14 14 14 14 14 14 14 14 14 14 14 14 14 14 14 14 14 14 14 14 14 14 14 14 14 14 14 13 13 13
15 15 14 14 15 15 15 15 15 14 14 14 14 14 14 14 14 14 14 14 13 13 13 13 13 13 13 13 13 13 13 13 13 14 14 13 13 13 13 13 13 13 13
14 14 14 14 14 14 14 14 14 14 14 14 14 14 14 13 13 13 13 13 13 13 13 13 13 13 13 13 13 13 12 13 13 13 13 13 13 13 13 13 13 13 13
14 14 14 14 14 14 14 14 14 14 14 14 14 14 13 13 13 13 13 13 13 13 13 13 13 13 12 12 12 12 12 12 12 12 12 12 12 13 13 13 13 13 13
14 14 14 14 13 13 14 14 13 13 13 13 13 13 13 13 13 13 13 13 13 13 12 12 12 12 12 12 12 12 12 12 12 12 12 12 12 12 12 12 12 12 12
14 14 13 13 13 13 13 13 13 13 13 13 13 13 13 13 12 12 12 12 12 12 12 12 12 12 12 12 12 12 12 12 11 11 11 11 11 12 12 12 12 12 12
13 13 13 13 13 13 13 13 13 13 13 13 12 12 12 12 12 12 12 12 12 12 12 12 12 12 12 12 11 11 11 11 11 11 11 11 11 11 11 11 11 11 11
13 13 13 13 13 13 13 12 12 12 12 12 12 12 12 12 12 12 12 12 12 12 12 11 11 11 11 11 11 11 11 11 11 10 10 10 10 10 10 11 11 11 11
Wind_Speed
1 0 1 1 1 1 1 1 2 1 2 2 3 3 3 4 5 5 5 7 8 9 9 9 10 10 10 10 10 11 11 11 10 10 10 10 10 10 10 9 9 9 8
2 1 1 1 1 1 2 2 2 2 2 2 2 2 3 3 4 4 5 6 8 8 8 9 9 10 10 10 10 10 11 11 11 11 11 11 11 10 10 10 10 10 9
2 1 1 2 2 2 1 1 1 1 2 2 2 2 2 2 3 3 4 5 5 6 7 7 9 10 10 11 10 10 10 10 10 10 11 11 11 11 11 11 10 10 9
2 2 1 2 2 1 0 1 1 1 1 2 2 1 1 1 2 2 2 2 3 3 5 6 7 8 9 10 10 10 10 10 10 10 10 11 11 11 11 10 10 10 10
1 1 1 1 0 0 0 1 0 0 1 1 1 1 1 1 1 1 1 2 2 2 3 4 5 6 7 8 8 8 9 9 10 10 10 10 11 11 11 10 10 9 9
0 1 1 0 0 1 0 1 0 1 0 1 1 0 0 1 1 1 2 2 2 3 3 3 4 5 5 5 5 6 8 9 9 10 10 10 11 10 10 10 10 10 9
0 1 0 0 1 0 0 1 1 0 1 1 1 1 1 0 1 1 1 1 2 2 2 3 3 3 4 5 5 6 6 8 9 10 11 11 11 10 10 11 10 10 9
1 1 0 0 0 1 1 1 1 1 0 1 1 1 1 1 1 1 1 1 1 1 2 3 2 3 3 3 4 5 5 6 8 9 10 11 11 11 11 11 11 11 10
1 1 1 1 1 1 0 0 0 1 0 0 1 1 1 1 1 1 1 1 1 1 2 2 2 3 3 3 3 4 6 6 7 8 9 10 10 11 11 12 12 11 11
2 1 1 1 1 1 0 0 0 0 1 0 0 0 1 1 1 1 1 1 1 1 2 2 2 3 3 3 4 4 5 5 7 7 8 9 10 10 10 11 12 11 11
2 2 1 1 1 1 1 0 0 1 1 1 1 0 1 1 1 1 1 2 1 1 1 2 2 2 3 4 4 4 6 6 6 7 8 8 9 9 9 10 10 11 11
2 3 2 1 1 1 0 0 0 1 1 1 1 1 1 1 1 1 1 1 2 2 2 1 2 2 3 3 5 5 6 7 7 7 7 8 7 9 10 10 10 10 10
1 2 2 1 1 1 1 0 1 0 1 1 1 1 1 1 1 1 1 1 1 2 1 1 1 2 3 3 4 6 6 7 7 7 7 8 9 8 9 10 11 11 10
1 1 2 2 2 2 1 1 1 0 0 0 1 1 1 1 1 1 2 2 1 1 1 2 1 1 2 3 4 5 5 6 6 7 8 8 9 9 9 9 10 10 10
1 2 2 2 2 2 2 1 2 1 0 0 1 1 1 1 1 1 2 2 2 2 3 2 1 1 2 2 3 4 4 6 6 7 7 8 9 9 10 9 9 9 9
2 3 3 3 3 2 2 2 2 1 1 1 1 1 1 2 1 1 2 2 2 3 3 2 2 2 2 3 3 3 4 5 6 7 8 8 9 9 9 8 8 8 9
2 2 2 3 3 3 3 2 2 2 2 1 1 1 2 1 1 1 1 1 2 2 2 2 2 2 2 2 2 2 2 3 3 5 7 7 8 7 8 8 8 7 8
2 2 2 2 2 3 3 3 3 3 2 2 2 1 2 2 2 2 1 1 1 2 2 3 3 2 2 2 2 2 2 2 2 3 4 5 6 7 7 8 8 7 7
2 2 2 2 2 2 2 2 2 2 2 2 2 2 2 1 2 2 1 1 1 1 1 2 3 2 2 2 2 2 2 2 2 2 3 4 5 6 6 7 8 7 7
2 2 2 2 2 2 2 2 2 2 2 2 2 2 2 2 2 2 2 2 1 1 1 1 1 2 2 2 1 2 2 2 3 2 2 2 3 5 6 7 7 7 7
1 1 2 2 2 1 2 2 1 2 2 2 3 2 2 2 2 2 2 2 2 1 1 1 1 1 2 1 2 2 2 2 3 2 2 2 2 2 3 5 6 7 8
2 2 1 2 2 2 2 2 1 2 2 2 3 3 3 3 3 3 2 2 3 3 3 2 2 2 3 3 2 2 2 2 3 1 1 2 1 2 3 3 3 5 7
1 1 2 2 2 3 3 2 2 2 2 2 3 3 3 3 3 3 3 3 2 1 3 3 3 4 4 4 3 3 3 3 3 2 1 3 2 3 3 3 4 4 4
0 1 2 2 3 4 4 3 3 2 2 3 3 3 2 3 3 2 2 2 2 2 2 2 3 4 4 3 4 3 3 2 2 1 1 2 2 3 3 3 4 5 5
1 1 1 2 3 4 5 4 2 1 2 3 3 3 2 3 4 3 2 2 2 3 2 1 2 3 2 2 2 2 1 1 1 2 1 2 2 2 2 3 3 4 4
1 2 2 2 3 3 5 4 2 1 2 3 3 3 4 4 4 3 2 2 2 3 2 2 3 3 3 1 1 3 3 3 2 2 1 2 1 1 2 2 2 2 2
Wind_Direction
197 218 300 288 270 255 263 288 283 284 273 258 238 227 227 220 219 219 226 232 233 228 228 219 213 216 214 210 208 207 207 209 207 204 203 200 199 200 202 202 201 199 199
193 189 235 264 262 247 238 248 257 254 262 254 242 233 227 227 228 224 231 239 239 234 227 221 215 215 214 212 211 211 210 211 208 205 203 203 204 208 208 207 206 206 207
199 198 221 251 265 251 242 240 269 255 245 233 233 223 213 225 234 234 236 236 238 232 226 222 220 220 219 216 215 213 210 208 206 205 207 208 209 210 211 210 210 210 212
201 195 215 249 264 243 240 238 264 248 243 227 230 237 219 200 212 220 224 223 221 224 225 222 219 221 221 221 221 218 215 210 205 205 206 208 207 209 209 209 211 211 211
217 189 220 253 233 124 72 275 317 219 216 218 217 214 225 221 210 205 206 211 207 205 213 222 213 214 217 223 222 217 214 209 205 207 209 209 210 208 207 209 211 210 212
190 170 202 316 77 98 45 28 5 12 167 193 197 194 227 219 177 186 201 195 200 208 212 218 214 216 208 210 218 216 212 206 206 208 211 211 208 206 206 207 207 208 211
133 147 230 20 57 80 115 67 66 40 54 94 98 36 8 160 172 184 187 195 211 216 208 206 203 209 218 216 217 213 215 210 211 210 212 212 211 211 211 210 209 208 211
53 158 127 108 98 76 50 58 78 80 81 94 110 104 23 353 341 248 196 201 219 211 211 209 200 200 206 214 219 215 222 221 219 217 213 214 214 214 214 212 212 212 214
60 59 46 66 74 107 202 201 107 136 141 46 77 136 148 231 316 331 275 246 230 219 223 206 203 206 204 211 214 218 222 224 225 224 219 217 214 217 220 218 217 216 216
46 49 43 49 63 71 130 248 124 124 132 175 287 81 153 161 169 302 312 296 248 222 221 217 219 218 217 217 222 229 231 233 228 222 222 221 218 219 223 224 222 222 220
16 25 37 47 45 31 358 355 87 134 149 167 175 168 98 74 111 181 273 314 327 280 244 236 224 228 224 220 228 236 232 235 235 230 229 227 228 225 225 227 228 225 222
6 14 18 13 3 12 318 284 186 173 172 170 166 141 144 151 187 181 218 282 301 300 278 246 236 240 230 227 237 242 234 233 233 235 233 230 229 228 227 228 227 225 226
352 354 17 10 5 354 337 79 122 179 184 177 178 194 193 206 166 174 191 247 285 313 312 266 249 247 240 236 246 243 239 234 234 237 236 231 229 230 231 230 226 223 222
303 339 15 15 13 22 25 50 65 20 51 203 222 217 223 249 194 188 193 201 253 298 305 282 281 252 265 256 260 251 247 241 238 239 236 232 231 230 228 227 222 219 220
335 18 26 20 18 28 32 52 51 7 11 262 257 244 242 261 230 223 209 202 198 235 265 269 269 270 273 263 271 262 257 252 245 242 236 230 231 229 226 226 224 222 220
19 24 24 21 19 26 32 44 31 1 9 322 285 272 272 263 262 245 223 220 213 213 240 254 266 288 285 283 272 262 257 258 253 244 238 230 228 226 224 224 224 224 223
37 37 33 35 26 20 21 33 22 20 14 345 329 304 288 275 274 272 250 225 222 213 233 275 285 294 277 289 296 282 276 261 261 245 235 227 225 225 223 224 224 224 223
20 25 38 36 15 11 16 23 12 9 4 339 320 313 304 307 304 292 270 248 237 227 217 265 297 307 288 277 290 296 307 281 262 248 232 224 222 223 222 221 219 219 221
26 32 36 19 0 359 2 354 348 345 350 334 325 305 299 302 297 301 279 258 255 246 234 237 276 292 292 287 308 313 311 305 284 272 256 239 230 225 222 220 217 218 221
41 29 17 0 349 351 349 337 343 345 339 330 324 314 306 281 263 263 265 256 238 219 210 214 259 279 282 290 291 298 309 308 293 295 307 277 254 241 233 225 222 222 223
33 29 18 7 357 353 343 340 330 333 325 328 329 325 318 304 285 273 265 249 218 208 207 219 247 273 287 290 272 261 271 294 286 278 299 285 278 272 261 243 234 231 229
25 32 8 359 351 340 340 334 319 304 306 300 311 322 327 335 330 314 295 263 229 216 218 223 233 247 264 266 271 262 265 284 284 287 268 278 264 267 271 253 248 237 233
32 10 345 341 321 318 329 313 307 291 294 292 297 310 326 340 348 342 352 349 321 268 207 206 226 245 251 247 235 242 243 257 264 267 253 263 263 266 272 267 250 243 243
323 318 328 325 316 324 337 325 314 306 310 307 304 299 307 322 337 349 6 3 339 310 254 221 228 246 250 242 222 225 229 249 274 260 227 251 272 274 279 273 245 235 245
313 320 326 318 311 318 333 334 348 328 325 321 322 326 326 323 333 352 4 341 329 318 309 304 279 280 285 255 194 165 177 197 267 271 217 235 260 285 281 266 257 239 245
283 307 328 327 323 325 338 341 355 351 336 328 330 332 339 332 326 321 312 308 301 297 311 329 331 331 328 318 194 195 201 207 232 259 222 205 243 278 283 271 270 266 265
Height
1528 1528 1529 1529 1529 1530 1530 1530 1530 1531 1531 1531 1532 1532 1533 1533 1534 1535 1536 1537 1538 1540 1541 1542 1543 1543 1544 1545 1546 1547 1548 1549 1550 1551 1553 1554 1555 1556 1557 1558 1560 1561 1562
1528 1528 1529 1529 1529 1529 1529 1529 1529 1529 1529 1529 1529 1530 1531 1532 1532 1533 1534 1535 1536 1537 1538 1540 1540 1541 1542 1543 1544 1545 1546 1547 1549 1550 1551 1552 1553 1554 1555 1557 1558 1559 1560
1528 1528 1528 1528 1528 1528 1528 1527 1527 1527 1527 1527 1527 1528 1528 1529 1530 1531 1532 1533 1534 1535 1536 1537 1538 1539 1540 1541 1542 1543 1544 1545 1547 1548 1549 1550 1551 1552 1553 1554 1556 1557 1558
1527 1527 1527 1527 1527 1527 1526 1526 1525 1525 1525 1525 1525 1526 1526 1527 1528 1529 1530 1531 1532 1533 1534 1535 1536 1537 1538 1539 1540 1541 1542 1543 1544 1545 1547 1548 1549 1550 1551 1552 1553 1554 1556
1527 1527 1527 1526 1526 1525 1525 1524 1523 1523 1523 1523 1523 1524 1525 1525 1526 1527 1528 1529 1530 1531 1532 1533 1533 1534 1535 1537 1538 1538 1540 1541 1542 1543 1544 1545 1546 1547 1548 1550 1551 1552 1553
1526 1526 1526 1525 1525 1524 1524 1523 1522 1522 1521 1521 1522 1522 1523 1523 1524 1525 1526 1527 1528 1529 1530 1531 1532 1532 1533 1534 1535 1536 1537 1538 1539 1540 1541 1542 1544 1545 1546 1547 1548 1549 1550
1526 1525 1525 1524 1524 1523 1523 1522 1522 1521 1520 1520 1521 1521 1521 1522 1522 1524 1524 1526 1527 1528 1529 1529 1530 1531 1532 1532 1533 1534 1535 1536 1537 1538 1539 1540 1541 1542 1543 1544 1545 1546 1547
1525 1525 1524 1523 1523 1523 1522 1522 1521 1520 1520 1520 1520 1520 1520 1522 1521 1522 1523 1524 1525 1526 1527 1528 1528 1529 1530 1530 1531 1532 1533 1534 1534 1535 1536 1537 1538 1539 1540 1541 1542 1543 1544
1524 1524 1523 1523 1523 1522 1522 1521 1521 1520 1520 1520 1520 1521 1521 1520 1520 1521 1521 1522 1523 1524 1525 1526 1527 1527 1528 1529 1529 1530 1531 1532 1532 1533 1533 1534 1535 1536 1537 1538 1539 1539 1540
1523 1523 1523 1522 1522 1522 1521 1521 1520 1520 1520 1519 1520 1520 1520 1520 1520 1520 1520 1520 1521 1521 1522 1524 1525 1525 1526 1527 1527 1528 1529 1529 1530 1530 1531 1532 1532 1533 1534 1534 1535 1536 1537
1522 1522 1522 1522 1521 1521 1521 1520 1519 1519 1519 1519 1518 1518 1518 1519 1519 1519 1518 1519 1519 1519 1520 1521 1522 1523 1523 1524 1525 1526 1527 1527 1528 1528 1529 1529 1530 1530 1531 1531 1532 1533 1534
1521 1521 1521 1520 1520 1520 1520 1519 1519 1518 1518 1518 1518 1517 1517 1517 1517 1517 1517 1516 1517 1517 1518 1519 1520 1520 1521 1521 1522 1523 1524 1525 1525 1525 1526 1526 1527 1527 1528 1528 1529 1530 1531
1520 1520 1519 1519 1519 1519 1519 1518 1518 1518 1517 1517 1516 1516 1516 1516 1516 1516 1516 1515 1515 1515 1515 1516 1517 1518 1518 1518 1519 1520 1520 1521 1522 1522 1523 1523 1523 1524 1524 1525 1526 1527 1528
1519 1519 1519 1519 1518 1518 1517 1517 1517 1516 1516 1516 1515 1515 1515 1514 1514 1514 1514 1514 1513 1513 1513 1513 1514 1515 1515 1515 1516 1516 1517 1518 1518 1519 1519 1519 1520 1520 1521 1521 1522 1523 1524
1519 1518 1518 1518 1518 1517 1517 1516 1515 1515 1515 1514 1513 1513 1513 1512 1513 1513 1513 1513 1513 1511 1510 1510 1511 1512 1512 1512 1512 1513 1513 1514 1514 1515 1515 1515 1516 1517 1517 1518 1519 1520 1521
1517 1517 1517 1517 1517 1517 1516 1515 1514 1513 1513 1512 1512 1511 1511 1510 1510 1510 1510 1510 1510 1510 1508 1508 1508 1509 1509 1509 1509 1509 1510 1510 1511 1511 1511 1512 1512 1513 1514 1514 1515 1516 1518
1516 1516 1516 1516 1516 1515 1515 1514 1513 1512 1511 1511 1510 1510 1509 1509 1508 1508 1508 1507 1507 1507 1506 1506 1506 1506 1506 1506 1506 1506 1506 1506 1507 1507 1508 1508 1508 1509 1510 1511 1512 1512 1514
1515 1515 1515 1515 1514 1514 1513 1512 1511 1511 1510 1509 1509 1508 1507 1506 1506 1505 1505 1505 1505 1505 1504 1503 1503 1503 1503 1503 1503 1503 1503 1503 1503 1504 1504 1504 1505 1505 1506 1507 1508 1508 1509
1514 1514 1514 1513 1513 1512 1512 1511 1510 1509 1509 1508 1507 1506 1505 1504 1504 1503 1503 1502 1502 1502 1501 1501 1500 1500 1500 1500 1500 1500 1500 1500 1500 1500 1500 1501 1501 1501 1502 1503 1504 1504 1505
1513 1513 1512 1512 1511 1511 1510 1510 1509 1508 1507 1506 1505 1504 1503 1502 1501 1501 1500 1500 1499 1499 1499 1498 1497 1497 1497 1497 1496 1496 1496 1496 1496 1496 1496 1497 1497 1498 1498 1498 1499 1500 1501
1512 1512 1511 1511 1510 1509 1509 1508 1507 1506 1505 1504 1503 1502 1501 1500 1499 1498 1498 1497 1497 1496 1496 1495 1495 1494 1494 1493 1493 1493 1493 1493 1493 1493 1492 1493 1493 1493 1494 1494 1495 1496 1497
1511 1510 1509 1509 1508 1508 1507 1506 1505 1504 1503 1502 1501 1500 1499 1498 1496 1495 1495 1494 1494 1493 1492 1492 1492 1491 1491 1491 1491 1491 1490 1490 1489 1489 1489 1489 1489 1489 1490 1490 1491 1492 1493
1510 1509 1508 1507 1506 1506 1505 1504 1503 1502 1501 1500 1499 1498 1497 1496 1494 1493 1491 1491 1490 1490 1490 1490 1489 1488 1488 1487 1487 1487 1487 1487 1486 1486 1486 1485 1486 1485 1486 1487 1487 1488 1489
1508 1508 1507 1506 1505 1504 1503 1502 1501 1500 1499 1498 1497 1495 1494 1493 1492 1490 1489 1488 1487 1486 1486 1486 1486 1486 1485 1485 1485 1484 1483 1483 1483 1483 1483 1482 1482 1482 1483 1483 1484 1484 1485
1507 1507 1506 1505 1504 1503 1502 1500 1500 1498 1497 1495 1494 1493 1491 1490 1489 1488 1486 1485 1484 1483 1483 1483 1483 1482 1482 1481 1481 1481 1480 1480 1479 1479 1480 1479 1479 1479 1479 1480 1480 1481 1481
1507 1506 1505 1504 1503 1501 1500 1499 1497 1496 1495 1493 1492 1490 1489 1487 1486 1485 1483 1482 1481 1480 1480 1479 1479 1479 1478 1477 1477 1477 1476 1476 1476 1476 1476 1476 1476 1476 1476 1476 1477 1477 1477